Regional Weather Roundup
Issued by NWS Goodland, KS

Home | Current Version | Previous Version | Graphics & Text | Print | Product List | Glossary On
Versions: 1 2 3 4 5 6 7 8 9 10 11 12 13 14 15 16 17 18 19 20 21 22 23 24 25 26 27 28 29 30 31 32 33 34 35 36 37 38 39 40 41 42 43 44 45 46 47 48 49 50
000
ASUS43 KGLD 050408
RWRGLD

GOODLAND FORECAST AREA HOURLY WEATHER ROUNDUP
NATIONAL WEATHER SERVICE GOODLAND KS
1000 PM MDT WED MAY 04 2016

...OFFICIAL OBSERVATIONS...

CITY           SKY/WX    TMP DP  RH WIND       PRES   REMARKS
GOODLAND KS    CLEAR     55  42  61 SE5       30.12R
HILL CITY KS   CLEAR     50  44  80 CALM      30.09R
IMPERIAL NEB   CLEAR     56  41  57 SE5       30.10R
MCCOOK NEB     CLEAR     59  41  51 SE5       30.09R
AKRON CO       CLEAR     57  40  52 S13       30.15R
BURLINGTON CO  CLEAR     53  41  63 SE10      30.15R
LIMON CO       CLEAR     51  39  63 SE3       30.19R
$$

...UNOFFICIAL OBSERVATIONS...

CITY           SKY/WX    TMP DP  RH WIND       PRES   REMARKS
COLBY KS       CLEAR     55  48  76 SE5       30.12S
LENORA KS        N/A     59  32  36 MISG        N/A
NORTON KS      CLEAR     55  43  62 CALM      30.08S
SHARON SPRINGS   N/A     57  46  67 E9          N/A
TRIBUNE KS     CLEAR     57  46  67 E6        30.16R
KIT CARSON CO    N/A     57  44  62 MISG        N/A
YUMA CO          N/A     52  43  71 CALM        N/A
$$




USA.gov is the U.S. government's official web portal to all federal, state and local government web resources and services.